NOAA 16 DEB, 41359

Orbit data source: Space-Track

NOAA 16 DEB, 41359 is space debris in SSO originally from a launch on Thu, 21 Sep 2000 UTC launched from the Air Force Western Test Range (AFWTR). Debris objects in space refer to the collection of defunct objects orbiting the Earth. Examples of debris include non-operational satellites, rocket bodies, and fragments generated from explosions, collisions, or faulty payload assembly.

Loading next visibility...
Identifier
41359, 2000-055JC
Orbit
SSO
Country
Flag of USUS
Related business
Manufacturer
Unknown
Mission
Spacecraft
Bus & Motor
Unknown
Mass
Unknown
Launch date (UTC)
2000-09-21 (25 years ago)
Launch vehicle
Unknown
Launch site
Air Force Western Test Range (AFWTR)
Object type
Payload
Rocket body
Debris
Shape & HBR
Unknown shape, 0.1 m
Radar Cross Section
Small (<0.1 m²)

Expand to show TLE details & history
Last TLE update: 2 days ago

TLE from 2 days ago
0 NOAA 16 DEB
1 41359U 00055JC  25286.93502570  .00013301  00000-0  32715-2 0  9994
2 41359  98.9503 100.7998 0024002  99.8176 260.5729 14.52218120504231
Epoch: 2025-10-13T22:26Z
TLE epoch observation values (Epoch: 2025-10-13T22:26:26.220Z)
Latitude
-0.00003°
Longitude
101.45988°
Altitude
724.194 km
Speed
7.492 km/s
True Right ascension
06h 43m 11s
True Declination
0° 00' 00"
Sunlit
Object was in daylight at epoch
Visualization orbit readout
Latitude
Unknown
Longitude
Unknown
Altitude
Unknown
Speed
Unknown
Apparent Right ascension
Unknown
Apparent Declination
Unknown
Sunlit
N/A
Visualization observer readout
Local Sidereal Time
06:24:40
Azimuth
Unknown
Elevation
Unknown
Doppler factor
Unknown
Orbital elements
Apogee altitude
732.567 km
Perigee altitude
698.514 km
Semi-major axis
7,093.678 km
Eccentricity
0.0024
Inclination
98.9503°
RAAN
100.7998°
Arg. of periapsis
99.8176°
True anomaly
260.30171°
Mean anomaly
260.5729°
Eccentric anomaly
260.43729°
Mean motion
3.63275 °/min
Orbital period
99.1 mins
BSTAR
0.0032715
Loading maneuver chart data...
Computing Atmospheric mass density...

Documentation

Showing up to 5 results
|